XIWANG-1 (HOPE-1)

Last updated on Fri Dec 19 2025 00:03:11 GMT+0000 (Coordinated Universal Time)

1 36122U 09072B 25352.59359990 .00000183 00000+0 59477-3 0 9994 2 36122 100.3775 304.5236 0006999 288.8269 71.2084 13.16434220769244
UTC large
Height (km)
Speed (km/s)
/
Latitude / Longitude
Inclination (degrees)
Orbital Period (minutes)
Azimuth
Elevation
Range (km)
Doppler Factor

Next 0 passes for location: London (51.5072 / 0.1276)

Sorry there are no passes over London.